| time (UTC) | temp C | wind direction | speed KPH | gust KPH | rain 1hr cm | rain 24hr cm | rain mn cm | humidity % | barometer mb |
| 20260902091555 | 16 | 161 | 0.0 | 0.0 | 0.00 | 0.69 | 0.00 | 99 | 1020.7 |
| 20260902090048 | 16 | 156 | 0.0 | 0.0 | 0.00 | 0.69 | 0.00 | 99 | 1020.6 |
| 20260902084547 | 16 | 156 | 0.0 | 0.0 | 0.00 | 0.69 | 0.00 | 99 | 1020.5 |
| 20260902083109 | 16 | 156 | 0.0 | 3.2 | 0.00 | 0.69 | 0.00 | 99 | 1020.3 |
| 20260902081546 | 16 | 159 | 0.0 | 0.0 | 0.00 | 0.69 | 0.00 | 99 | 1020.6 |
| 20260902080045 | 16 | 208 | 0.0 | 0.0 | 0.00 | 0.69 | 0.00 | 99 | 1020.7 |
| 20260902074544 | 16 | 157 | 0.0 | 0.0 | 0.00 | 0.69 | 0.00 | 99 | 1020.8 |
| 20260902073043 | 16 | 158 | 0.0 | 0.0 | 0.00 | 0.69 | 0.00 | 99 | 1020.8 |
| 20260902071542 | 16 | 157 | 0.0 | 0.0 | 0.00 | 0.69 | 0.00 | 99 | 1020.8 |
| 20260902070043 | 16 | 159 | 0.0 | 0.0 | 0.00 | 0.69 | 0.00 | 99 | 1020.5 |
| 20260902064544 | 16 | 160 | 0.0 | 0.0 | 0.00 | 0.69 | 0.00 | 99 | 1020.4 |
| 20260902063042 | 16 | 160 | 0.0 | 0.0 | 0.00 | 0.69 | 0.00 | 99 | 1020.4 |
| 20260902061547 | 16 | 160 | 0.0 | 0.0 | 0.00 | 0.69 | 0.00 | 99 | 1020.7 |
| 20260902060037 | 16 | 160 | 0.0 | 0.0 | 0.00 | 0.69 | 0.00 | 99 | 1020.7 |
| 20260902054539 | 16 | 160 | 0.0 | 0.0 | 0.00 | 0.69 | 0.00 | 99 | 1020.5 |
| 20260902053036 | 16 | 160 | 0.0 | 0.0 | 0.00 | 0.69 | 0.00 | 99 | 1020.5 |
| 20260902051535 | 16 | 160 | 0.0 | 0.0 | 0.00 | 0.69 | 0.00 | 99 | 1020.2 |
| 20260902050032 | 16 | 160 | 0.0 | 0.0 | 0.00 | 0.69 | 0.00 | 99 | 1020.1 |
| 20260902044531 | 16 | 160 | 0.0 | 0.0 | 0.00 | 0.69 | 0.00 | 99 | 1020.0 |
| 20260902043039 | 16 | 160 | 0.0 | 0.0 | 0.00 | 0.69 | 0.00 | 99 | 1019.7 |
| 20260902041526 | 15 | 160 | 0.0 | 0.0 | 0.00 | 0.69 | 0.00 | 99 | 1019.7 |
| 20260902040024 | 15 | 160 | 0.0 | 0.0 | 0.00 | 0.69 | 0.00 | 99 | 1019.3 |
| 20260902034522 | 16 | 160 | 0.0 | 0.0 | 0.00 | 0.69 | 0.69 | 99 | 1019.1 |
| 20260902033021 | 16 | 160 | 0.0 | 0.0 | 0.00 | 0.69 | 0.69 | 99 | 1018.9 |
| 20260902031533 | 16 | 160 | 0.0 | 0.0 | 0.00 | 0.69 | 0.69 | 99 | 1019.0 |
| 20260902030019 | 16 | 160 | 0.0 | 0.0 | 0.00 | 0.69 | 0.69 | 99 | 1019.0 |
| 20260902024518 | 16 | 160 | 0.0 | 0.0 | 0.00 | 0.69 | 0.69 | 99 | 1019.0 |
| 20260902023029 | 16 | 160 | 0.0 | 0.0 | 0.00 | 0.69 | 0.69 | 99 | 1019.4 |
| 20260902021516 | 16 | 160 | 0.0 | 0.0 | 0.00 | 0.69 | 0.69 | 99 | 1019.3 |
| 20260902020023 | 16 | 158 | 0.0 | 0.0 | 0.00 | 0.69 | 0.69 | 99 | 1019.3 |
| 20260902014520 | 16 | 158 | 0.0 | 0.0 | 0.00 | 0.69 | 0.69 | 98 | 1019.3 |
| 20260902013014 | 16 | 158 | 0.0 | 0.0 | 0.00 | 0.69 | 0.69 | 99 | 1019.1 |
| 20260902011515 | 16 | 158 | 0.0 | 0.0 | 0.00 | 0.69 | 0.69 | 98 | 1019.1 |
| 20260902010013 | 16 | 158 | 0.0 | 0.0 | 0.00 | 0.69 | 0.69 | 98 | 1019.2 |
| 20260902004508 | 16 | 158 | 0.0 | 0.0 | 0.00 | 0.69 | 0.69 | 98 | 1018.8 |
| 20260902003009 | 16 | 158 | 0.0 | 0.0 | 0.00 | 0.69 | 0.69 | 98 | 1018.8 |
| 20260902001507 | 16 | 158 | 0.0 | 0.0 | 0.00 | 0.69 | 0.69 | 98 | 1018.6 |
| 20260902000007 | 16 | 158 | 0.0 | 0.0 | 0.00 | 0.69 | 0.69 | 98 | 1018.5 |
| 20260901234505 | 16 | 158 | 0.0 | 0.0 | 0.00 | 0.69 | 0.69 | 98 | 1018.5 |
| 20260901233010 | 16 | 158 | 0.0 | 0.0 | 0.00 | 0.69 | 0.69 | 98 | 1018.6 |
| 20260901231509 | 16 | 158 | 0.0 | 0.0 | 0.00 | 0.69 | 0.69 | 98 | 1018.6 |
| 20260901230004 | 16 | 158 | 0.0 | 0.0 | 0.00 | 0.69 | 0.69 | 98 | 1018.3 |
| 20260901224502 | 16 | 158 | 0.0 | 0.0 | 0.00 | 0.69 | 0.69 | 98 | 1018.4 |
| 20260901223002 | 16 | 158 | 0.0 | 0.0 | 0.00 | 0.69 | 0.69 | 98 | 1018.4 |
| 20260901221624 | 16 | 158 | 0.0 | 0.0 | 0.00 | 0.69 | 0.69 | 98 | 1018.4 |
| 20260901220118 | 17 | 158 | 0.0 | 0.0 | 0.03 | 0.69 | 0.69 | 98 | 1018.4 |
| 20260901214556 | 17 | 158 | 0.0 | 0.0 | 0.03 | 0.69 | 0.69 | 98 | 1018.1 |
| 20260901213107 | 17 | 158 | 0.0 | 0.0 | 0.03 | 0.69 | 0.69 | 98 | 1018.0 |
| 20260901211555 | 17 | 158 | 0.0 | 0.0 | 0.03 | 0.69 | 0.69 | 98 | 1018.1 |
| 20260901210053 | 17 | 158 | 0.0 | 1.6 | 0.00 | 0.66 | 0.66 | 98 | 1017.8 |
| 20260901204608 | 17 | 158 | 0.0 | 1.6 | 0.03 | 0.66 | 0.66 | 98 | 1017.7 |
| 20260901203059 | 17 | 88 | 0.0 | 1.6 | 0.03 | 0.66 | 0.66 | 98 | 1017.5 |
| 20260901201556 | 17 | 165 | 0.0 | 1.6 | 0.05 | 0.66 | 0.66 | 98 | 1017.4 |
| 20260901200114 | 17 | 151 | 0.0 | 3.2 | 0.08 | 0.66 | 0.66 | 98 | 1017.4 |
| 20260901194606 | 17 | 144 | 0.0 | 1.6 | 0.08 | 0.64 | 0.64 | 98 | 1017.3 |
| 20260901193052 | 17 | 139 | 0.0 | 4.8 | 0.10 | 0.61 | 0.61 | 98 | 1017.4 |
| 20260901191623 | 17 | 138 | 0.0 | 3.2 | 0.15 | 0.61 | 0.61 | 99 | 1017.4 |
| 20260901190058 | 17 | 116 | 0.0 | 0.0 | 0.15 | 0.58 | 0.58 | 98 | 1017.5 |
| 20260901184548 | 17 | 118 | 0.0 | 3.2 | 0.13 | 0.56 | 0.56 | 98 | 1017.5 |
| 20260901183053 | 17 | 113 | 0.0 | 1.6 | 0.08 | 0.51 | 0.51 | 98 | 1017.6 |
| 20260901181605 | 17 | 101 | 0.0 | 6.4 | 0.03 | 0.46 | 0.46 | 98 | 1017.6 |
| 20260901180047 | 17 | 130 | 0.0 | 6.4 | 0.03 | 0.43 | 0.43 | 98 | 1017.3 |
| 20260901174546 | 17 | 159 | 0.0 | 6.4 | 0.03 | 0.43 | 0.43 | 98 | 1017.0 |
| 20260901173045 | 16 | 138 | 0.0 | 6.4 | 0.03 | 0.43 | 0.43 | 98 | 1017.0 |
| 20260901171549 | 16 | 92 | 0.0 | 6.4 | 0.03 | 0.43 | 0.43 | 98 | 1017.3 |
| 20260901170055 | 16 | 145 | 0.0 | 4.8 | 0.00 | 0.41 | 0.41 | 98 | 1017.2 |
| 20260901164543 | 17 | 158 | 0.0 | 3.2 | 0.00 | 0.41 | 0.41 | 98 | 1017.2 |
| 20260901163046 | 17 | 215 | 0.0 | 1.6 | 0.00 | 0.41 | 0.41 | 98 | 1017.4 |
| 20260901161542 | 17 | 149 | 0.0 | 4.8 | 0.00 | 0.41 | 0.41 | 98 | 1017.5 |
| 20260901154540 | 17 | 108 | 1.6 | 6.4 | 0.00 | 0.41 | 0.41 | 98 | 1017.1 |
| 20260901153044 | 17 | 82 | 0.0 | 4.8 | 0.00 | 0.41 | 0.41 | 98 | 1017.1 |
| 20260901151543 | 17 | 121 | 0.0 | 1.6 | 0.00 | 0.41 | 0.41 | 98 | 1017.4 |
| 20260901150045 | 17 | 148 | 0.0 | 1.6 | 0.00 | 0.41 | 0.41 | 98 | 1017.5 |
| 20260901144543 | 17 | 146 | 0.0 | 3.2 | 0.00 | 0.41 | 0.41 | 98 | 1017.1 |
| 20260901143038 | 17 | 92 | 0.0 | 1.6 | 0.00 | 0.41 | 0.41 | 98 | 1017.2 |
| 20260901141536 | 17 | 137 | 0.0 | 3.2 | 0.00 | 0.41 | 0.41 | 97 | 1017.3 |
| 20260901140101 | 17 | 146 | 0.0 | 1.6 | 0.05 | 0.41 | 0.41 | 97 | 1017.1 |
| 20260901134535 | 17 | 138 | 0.0 | 4.8 | 0.15 | 0.41 | 0.41 | 97 | 1017.2 |
| 20260901133030 | 17 | 86 | 0.0 | 1.6 | 0.28 | 0.41 | 0.41 | 97 | 1017.4 |
| 20260901131538 | 17 | 139 | 0.0 | 3.2 | 0.38 | 0.41 | 0.41 | 98 | 1017.6 |
| 20260901130031 | 17 | 239 | 0.0 | 0.0 | 0.36 | 0.36 | 0.36 | 97 | 1017.6 |
| 20260901124527 | 17 | 237 | 0.0 | 0.0 | 0.25 | 0.25 | 0.25 | 97 | 1017.5 |
| 20260901123030 | 17 | 314 | 0.0 | 0.0 | 0.13 | 0.13 | 0.13 | 97 | 1017.9 |
| 20260901121524 | 17 | 314 | 0.0 | 0.0 | 0.03 | 0.03 | 0.03 | 97 | 1017.7 |
| 20260901120023 | 17 | 314 | 0.0 | 0.0 | 0.00 | 0.00 | 0.00 | 97 | 1017.7 |
| 20260901114529 | 17 | 314 | 0.0 | 0.0 | 0.00 | 0.00 | 0.00 | 97 | 1017.5 |
| 20260901113022 | 17 | 314 | 0.0 | 0.0 | 0.00 | 0.00 | 0.00 | 96 | 1017.6 |
| 20260901111522 | 17 | 314 | 0.0 | 0.0 | 0.00 | 0.00 | 0.00 | 96 | 1017.5 |
| 20260901110021 | 17 | 314 | 0.0 | 0.0 | 0.00 | 0.00 | 0.00 | 96 | 1017.3 |
| 20260901104522 | 17 | 314 | 0.0 | 0.0 | 0.00 | 0.00 | 0.00 | 95 | 1017.2 |
| 20260901103018 | 18 | 314 | 0.0 | 0.0 | 0.00 | 0.00 | 0.00 | 94 | 1017.0 |
| 20260901101538 | 18 | 314 | 0.0 | 0.0 | 0.00 | 0.00 | 0.00 | 92 | 1016.9 |
| 20260901100015 | 18 | 314 | 0.0 | 0.0 | 0.00 | 0.00 | 0.00 | 90 | 1016.8 |
| 20260901094527 | 18 | 314 | 0.0 | 0.0 | 0.00 | 0.00 | 0.00 | 88 | 1016.7 |